Hourly Weather Dziecmierowo

Today, 12 May, Wednesday

Time Temperature Precipitation Wind Pressure Humidity
00:00 +17°C° 0 mm 5 mps 746 mmHg 84%
01:00 +17°C° 0 mm 5 mps 746 mmHg 85%
02:00 +17°C° 0 mm 4 mps 746 mmHg 87%
03:00 +15°C° 0 mm 4 mps 746 mmHg 89%
04:00 +16°C° 0 mm 3 mps 746 mmHg 91%
05:00 +17°C° 0 mm 3 mps 746 mmHg 88%
06:00 +18°C° 0 mm 3 mps 746 mmHg 85%
07:00 +19°C° 0 mm 3 mps 747 mmHg 82%
08:00 +19°C° 0 mm 3 mps 747 mmHg 81%
09:00 +20°C° 0 mm 3 mps 747 mmHg 80%
10:00 +21°C° 0 mm 3 mps 747 mmHg 79%
11:00 +21°C° 0 mm 3 mps 747 mmHg 78%
12:00 +21°C° 0 mm 2 mps 747 mmHg 77%
13:00 +21°C° 0 mm 2 mps 747 mmHg 77%
14:00 +23°C° 0.7 mm 2 mps 747 mmHg 75%
15:00 +23°C° 0.7 mm 2 mps 747 mmHg 74%
16:00 +23°C° 0.7 mm 2 mps 746 mmHg 73%
17:00 +21°C° 1 mm 2 mps 746 mmHg 76%
18:00 +20°C° 1 mm 3 mps 746 mmHg 78%
19:00 +19°C° 1 mm 3 mps 746 mmHg 81%
20:00 +18°C° 0.2 mm 4 mps 746 mmHg 84%
21:00 +16°C° 0.2 mm 5 mps 746 mmHg 87%
22:00 +15°C° 0.2 mm 5 mps 746 mmHg 91%
23:00 +14°C° 0 mm 5 mps 745 mmHg 91%

Tomorrow, 13 May, Thursday

Time Temperature Precipitation Wind Pressure Humidity
00:00 +14°C° 0 mm 5 mps 745 mmHg 92%
01:00 +13°C° 0 mm 5 mps 745 mmHg 92%
02:00 +12°C° 0 mm 5 mps 745 mmHg 92%
03:00 +12°C° 0 mm 5 mps 744 mmHg 92%
04:00 +10°C° 0 mm 5 mps 744 mmHg 91%
05:00 +12°C° 0 mm 5 mps 744 mmHg 88%
06:00 +12°C° 0 mm 5 mps 744 mmHg 84%
07:00 +13°C° 0 mm 5 mps 744 mmHg 81%
08:00 +14°C° 0 mm 5 mps 744 mmHg 76%
09:00 +15°C° 0 mm 5 mps 744 mmHg 70%
10:00 +17°C° 0 mm 5 mps 743 mmHg 65%
11:00 +17°C° 0 mm 5 mps 743 mmHg 62%
12:00 +19°C° 0 mm 4 mps 743 mmHg 59%
13:00 +20°C° 0 mm 4 mps 742 mmHg 55%
14:00 +20°C° 0 mm 4 mps 742 mmHg 55%
15:00 +20°C° 0 mm 4 mps 742 mmHg 55%
16:00 +20°C° 0 mm 3 mps 742 mmHg 55%
17:00 +18°C° 0 mm 3 mps 742 mmHg 62%
18:00 +17°C° 0 mm 3 mps 742 mmHg 69%
19:00 +16°C° 0 mm 2 mps 742 mmHg 76%
20:00 +13°C° 0 mm 3 mps 742 mmHg 81%
21:00 +12°C° 0 mm 3 mps 742 mmHg 86%
22:00 +11°C° 0 mm 3 mps 743 mmHg 90%
23:00 +11°C° 0 mm 3 mps 743 mmHg 91%

Day after tomorrow, 14 May, Friday

Time Temperature Precipitation Wind Pressure Humidity
00:00 +10°C° 0 mm 4 mps 743 mmHg 92%
01:00 +10°C° 0 mm 4 mps 743 mmHg 93%
02:00 +10°C° 0 mm 4 mps 743 mmHg 92%
03:00 +10°C° 0 mm 4 mps 743 mmHg 91%
04:00 +10°C° 0 mm 4 mps 743 mmHg 90%
05:00 +9°C° 0 mm 5 mps 744 mmHg 90%
06:00 +9°C° 0 mm 5 mps 744 mmHg 90%
07:00 +9°C° 0 mm 5 mps 744 mmHg 89%
08:00 +8°C° 0.1 mm 5 mps 745 mmHg 90%
09:00 +8°C° 0.1 mm 5 mps 745 mmHg 90%
10:00 +8°C° 0.1 mm 5 mps 746 mmHg 90%
11:00 +8°C° 0.1 mm 5 mps 746 mmHg 89%
12:00 +9°C° 0.1 mm 5 mps 746 mmHg 88%
13:00 +9°C° 0.1 mm 5 mps 747 mmHg 87%
14:00 +9°C° 0 mm 5 mps 747 mmHg 84%
15:00 +10°C° 0 mm 5 mps 747 mmHg 81%
16:00 +10°C° 0 mm 5 mps 747 mmHg 77%
17:00 +11°C° 0 mm 4 mps 747 mmHg 79%
18:00 +10°C° 0 mm 3 mps 747 mmHg 81%
19:00 +11°C° 0 mm 1 mps 747 mmHg 84%
20:00 +10°C° 0 mm 1 mps 747 mmHg 86%
21:00 +9°C° 0 mm 1 mps 748 mmHg 88%
22:00 +9°C° 0 mm 1 mps 748 mmHg 90%
23:00 +8°C° 0 mm 1 mps 748 mmHg 91%

15 May, Saturday

Time Temperature Precipitation Wind Pressure Humidity
00:00 +7°C° 0 mm 2 mps 748 mmHg 91%
01:00 +7°C° 0 mm 2 mps 748 mmHg 92%
02:00 +6°C° 0 mm 2 mps 748 mmHg 92%
03:00 +6°C° 0 mm 2 mps 748 mmHg 92%
04:00 +6°C° 0 mm 2 mps 748 mmHg 92%
05:00 +7°C° 0 mm 2 mps 749 mmHg 88%
06:00 +9°C° 0 mm 2 mps 749 mmHg 83%
07:00 +10°C° 0 mm 3 mps 749 mmHg 78%
08:00 +12°C° 0 mm 3 mps 749 mmHg 74%
09:00 +13°C° 0 mm 3 mps 749 mmHg 69%
10:00 +16°C° 0 mm 3 mps 749 mmHg 65%
11:00 +17°C° 0.1 mm 2 mps 749 mmHg 62%
12:00 +17°C° 0.1 mm 2 mps 749 mmHg 59%
13:00 +19°C° 0.1 mm 1 mps 749 mmHg 57%
14:00 +19°C° 0.2 mm 1 mps 749 mmHg 58%
15:00 +19°C° 0.2 mm 1 mps 748 mmHg 59%
16:00 +17°C° 0.2 mm 0 mps 748 mmHg 60%
17:00 +18°C° 0.2 mm 1 mps 748 mmHg 65%
18:00 +16°C° 0.2 mm 1 mps 748 mmHg 71%
19:00 +14°C° 0.2 mm 2 mps 748 mmHg 77%
20:00 +14°C° 0.2 mm 2 mps 748 mmHg 79%
21:00 +13°C° 0.2 mm 2 mps 749 mmHg 81%
22:00 +12°C° 0.2 mm 2 mps 749 mmHg 83%
23:00 +12°C° 0.1 mm 1 mps 749 mmHg 84%

16 May, Sunday

Time Temperature Precipitation Wind Pressure Humidity
00:00 +12°C° 0.1 mm 1 mps 749 mmHg 85%
01:00 +12°C° 0.1 mm 1 mps 749 mmHg 85%
02:00 +12°C° 0.1 mm 1 mps 749 mmHg 86%
03:00 +12°C° 0.1 mm 1 mps 749 mmHg 87%
04:00 +12°C° 0.1 mm 1 mps 749 mmHg 88%
05:00 +12°C° 0.3 mm 1 mps 749 mmHg 89%
06:00 +12°C° 0.3 mm 1 mps 749 mmHg 91%
07:00 +12°C° 0.3 mm 1 mps 749 mmHg 92%
08:00 +12°C° 0.5 mm 1 mps 750 mmHg 92%
09:00 +12°C° 0.5 mm 2 mps 750 mmHg 92%
10:00 +12°C° 0.5 mm 2 mps 750 mmHg 92%
11:00 +13°C° 0.5 mm 2 mps 750 mmHg 90%
12:00 +13°C° 0.5 mm 2 mps 750 mmHg 89%
13:00 +12°C° 0.5 mm 3 mps 749 mmHg 88%
14:00 +14°C° 0 mm 2 mps 749 mmHg 83%
15:00 +15°C° 0 mm 2 mps 749 mmHg 78%
16:00 +16°C° 0 mm 2 mps 749 mmHg 73%
17:00 +15°C° 0 mm 2 mps 748 mmHg 76%
18:00 +15°C° 0 mm 2 mps 748 mmHg 80%
19:00 +14°C° 0 mm 1 mps 748 mmHg 84%
20:00 +13°C° 0 mm 2 mps 748 mmHg 86%
21:00 +12°C° 0 mm 2 mps 748 mmHg 89%
22:00 +10°C° 0 mm 2 mps 748 mmHg 91%
23:00 +10°C° 0 mm 2 mps 748 mmHg 92%

17 May, Monday

Time Temperature Precipitation Wind Pressure Humidity
00:00 +9°C° 0 mm 2 mps 748 mmHg 92%
01:00 +9°C° 0 mm 2 mps 748 mmHg 93%
02:00 +9°C° 0 mm 2 mps 748 mmHg 94%
03:00 +8°C° 0 mm 3 mps 748 mmHg 94%
04:00 +8°C° 0 mm 3 mps 748 mmHg 95%
05:00 +9°C° 0 mm 3 mps 748 mmHg 91%
06:00 +10°C° 0 mm 4 mps 748 mmHg 87%
07:00 +12°C° 0 mm 5 mps 748 mmHg 82%
08:00 +13°C° 0 mm 5 mps 748 mmHg 77%
09:00 +14°C° 0 mm 5 mps 748 mmHg 72%
10:00 +16°C° 0 mm 5 mps 748 mmHg 66%
11:00 +17°C° 0 mm 4 mps 748 mmHg 62%
12:00 +18°C° 0 mm 4 mps 748 mmHg 59%
13:00 +19°C° 0 mm 4 mps 748 mmHg 55%
14:00 +18°C° 0 mm 4 mps 748 mmHg 58%
15:00 +18°C° 0 mm 4 mps 748 mmHg 60%
16:00 +18°C° 0 mm 3 mps 748 mmHg 63%
17:00 +17°C° 0.1 mm 3 mps 748 mmHg 68%
18:00 +14°C° 0.1 mm 3 mps 748 mmHg 74%
19:00 +13°C° 0.1 mm 3 mps 748 mmHg 80%
20:00 +12°C° 0 mm 3 mps 748 mmHg 84%
21:00 +11°C° 0 mm 3 mps 749 mmHg 87%
22:00 +10°C° 0 mm 3 mps 749 mmHg 91%
23:00 +10°C° 0 mm 3 mps 749 mmHg 92%
Show more

We Need Your Consent

Meteoprog and our Service Providers may store and access personal data such as cookies, device identifiers or other similar technologies on your device and process such data to personalise content and ads, as well as provide social media features and to analyse the traffic.

  • Store and/or access information on your device

    Cookies, device identifiers or other information can be stored or accessed on your device for the purposes indicated above.

  • Personalised ads and content, ad and content measurement, audience insights, and products development

    Ads and content can be personalised based on a profile. More data can be added to better personalise ads and content. Ad and content performance can be measured. Insights about the audience who saw the ads and content can be derived. Such data can be used to develop or improve user’s experience, systems and software.

By clicking ‘I Agree’ you will allow the use of indicated cookies, device identifiers, web beacons or other similar technologies. Your settings can be changed in the browser on your device.

For certain purposes, legitimate interests may be relied on, rather than consent. You can read more about this in our Privacy and Cookie Policy.